This demonstration page uses our WeatherBlox Daily Observations layout. Learn more.

Left ArrowRight Arrow

34.74481, -87.66753

Hourly Observations for January 18, 2020

Temp ( °F °C ) Dew Point ( °F °C ) Humidity (%) Winds ( mph kmh ) Pressure ( in mb ) Visibility ( mi km ) Precip ( " mm )
12:53 am 00:53 Cloudy 56 13.3 30 -1.1 37 37 SSE 14 22 30.28 1025 10 16 0.00 0.00
1:53 am 01:53 Cloudy 55 12.8 31 -0.6 40 40 SSE 14 22 30.25 1024 10 16 0.00 0.00
2:53 am 02:53 Cloudy 54 12.2 31 -0.6 42 42 SSE 15 24 30.22 1024 10 16 0.00 0.00
3:53 am 03:53 Mostly Cloudy 54 12.2 34 1.1 47 47 SSE 18 30 30.20 1023 10 16 0.00 0.00
4:53 am 04:53 Mostly Cloudy 54 12.2 37 2.8 53 53 S 12 19 30.21 1023 10 16 0.00 0.00
5:22 am 05:22 Cloudy 54 12.2 38 3.3 55 55 S 14 22 30.21 1023 10 16 0.00 0.00
5:53 am 05:53 Cloudy 55 12.8 40 4.4 57 57 S 14 22 30.19 1022 10 16 0.00 0.00
6:53 am 06:53 Cloudy with Light Rain 52 11.1 45 7.2 77 77 S 9 15 30.19 1023 7 11 0.01 0.25
7:53 am 07:53 Cloudy 51 10.6 47 8.3 86 86 SSE 15 24 30.18 1022 10 16 0.04 1.02
8:24 am 08:24 Cloudy with Light Rain 52 11.1 47 8.3 83 83 S 12 19 30.20 1023 10 16 0.00 0.00
8:53 am 08:53 Cloudy 52 11.1 47 8.3 83 83 S 12 19 30.17 1022 10 16 0.00 0.00
9:03 am 09:03 Cloudy 52 11.1 47 8.3 83 83 SSE 12 19 30.19 1022 10 16 0.00 0.00
9:34 am 09:34 Cloudy with Light Rain 53 11.7 48 8.9 83 83 S 9 15 30.18 1022 10 16 0.00 0.00
9:53 am 09:53 Cloudy with Light Rain 53 11.7 48 8.9 83 83 S 15 24 30.17 1022 8 13 0.01 0.25
10:53 am 10:53 Cloudy with Light Rain 54 12.2 51 10.6 90 90 SSW 12 19 30.16 1021 4 6 0.06 1.52
11:25 am 11:25 Cloudy with Light Rain 54 12.2 51 10.6 90 90 SSW 12 19 30.16 1021 3 4 0.04 1.02
11:32 am 11:32 Cloudy with Light Rain 54 12.2 51 10.6 90 90 S 9 15 30.15 1021 5 8 0.04 1.02
11:42 am 11:42 Cloudy 55 12.8 52 11.1 90 90 S 12 19 30.14 1021 10 16 0.04 1.02
11:53 am 11:53 Cloudy 55 12.8 51 10.6 87 87 S 13 20 30.12 1020 10 16 0.04 1.02
12:53 pm 12:53 Cloudy 57 13.9 53 11.7 87 87 SSW 14 22 30.08 1019 10 16 0.00 0.00
1:53 pm 13:53 Cloudy with Rain 58 14.4 54 12.2 87 87 SSW 15 24 30.05 1018 4 6 0.03 0.76
2:18 pm 14:18 Cloudy with Rain 58 14.4 55 12.8 90 90 NW 6 9 30.08 1019 4 6 0.02 0.51
2:22 pm 14:22 Cloudy with Heavy Rain 58 14.4 55 12.8 90 90 WNW 9 15 30.09 1019 3 4 0.03 0.76
2:34 pm 14:34 Cloudy with Rain 58 14.4 55 12.8 90 90 WNW 6 9 30.08 1019 4 6 0.05 1.27
2:53 pm 14:53 Cloudy 58 14.4 56 13.3 93 93 SW 6 9 30.08 1019 8 13 0.06 1.52
2:58 pm 14:58 Cloudy 58 14.4 56 13.3 93 93 SW 8 13 30.08 1019 10 16 0.00 0.00
3:07 pm 15:07 Cloudy 59 15 56 13.3 90 90 SSW 10 17 30.08 1019 10 16 0.00 0.00
3:18 pm 15:18 Cloudy 59 15 56 13.3 90 90 SW 10 17 30.08 1019 10 16 0.00 0.00
3:53 pm 15:53 Cloudy 60 15.6 56 13.3 86 86 WSW 10 17 30.08 1019 10 16 0.01 0.25
4:53 pm 16:53 Cloudy 60 15.6 56 13.3 86 86 WSW 10 17 30.08 1019 10 16 0.00 0.00
5:53 pm 17:53 Cloudy 59 15 56 13.3 90 90 W 7 11 30.10 1019 10 16 0.00 0.00
6:04 pm 18:04 Cloudy 59 15 56 13.3 90 90 W 7 11 30.11 1020 10 16 0.00 0.00
6:22 pm 18:22 Cloudy 59 15 56 13.3 90 90 NW 5 7 30.11 1020 10 16 0.00 0.00
6:50 pm 18:50 Cloudy 59 15 55 13 88 88 WNW 8 13 30.12 1020 10 16 0.00 0.00
6:53 pm 18:53 Mostly Cloudy 59 15 56 13.3 90 90 WNW 8 13 30.12 1020 10 16 0.00 0.00
7:53 pm 19:53 Clear 56 13.3 50 10 81 81 WNW 14 22 30.15 1021 10 16 0.00 0.00
8:53 pm 20:53 Clear 54 12.2 46 7.8 75 75 NW 12 19 30.16 1022 10 16 0.00 0.00
9:53 pm 21:53 Clear 50 10 41 5 71 71 NW 14 22 30.20 1023 10 16 0.00 0.00
10:53 pm 22:53 Clear 48 8.9 35 1.7 61 61 NW 12 19 30.22 1023 10 16 0.00 0.00
11:53 pm 23:53 Clear 44 6.7 33 0.6 65 65 WNW 13 20 30.24 1024 10 16 0.00 0.00

Powered by AerisWeather